| time (UTC) | temp F | wind direction | speed MPH | gust MPH | rain 1hr in | rain 24hr in | rain mn in | humidity % | barometer mb |
| 20260504150953 | 73 | 201 | 4.0 | 8.0 | 0.00 | 0.00 | 0.00 | 62 | 1007.2 |
| 20260504150450 | 73 | 172 | 6.0 | 8.0 | 0.00 | 0.00 | 0.00 | 61 | 1007.2 |
| 20260504140916 | 69 | 221 | 2.0 | 2.0 | 0.00 | 0.00 | 0.00 | 69 | 1007.4 |
| 20260504140412 | 68 | 202 | 2.0 | 3.0 | 0.00 | 0.00 | 0.00 | 71 | 1007.3 |
| 20260504130337 | 63 | 193 | 6.0 | 8.0 | 0.00 | 0.00 | 0.00 | 76 | 1007.3 |
| 20260504120301 | 62 | 190 | 6.0 | 7.0 | 0.00 | 0.00 | 0.00 | 74 | 1007.4 |
| 20260504110224 | 61 | 206 | 2.0 | 2.0 | 0.00 | 0.00 | 0.00 | 73 | 1006.7 |
| 20260504100148 | 62 | 234 | 2.0 | 2.0 | 0.00 | 0.00 | 0.00 | 69 | 1006.5 |
| 20260504090111 | 62 | 194 | 5.0 | 7.0 | 0.00 | 0.00 | 0.00 | 66 | 1006.7 |
| 20260504081541 | 62 | 215 | 6.0 | 7.0 | 0.00 | 0.00 | 0.00 | 65 | 1006.9 |
| 20260504081037 | 61 | 194 | 2.0 | 4.0 | 0.00 | 0.00 | 0.00 | 65 | 1006.8 |
| 20260504080534 | 62 | 189 | 4.0 | 6.0 | 0.00 | 0.00 | 0.00 | 64 | 1007.0 |
| 20260504050346 | 62 | 228 | 5.0 | 9.0 | 0.00 | 0.00 | 0.00 | 58 | 1008.5 |
| 20260504045843 | 63 | 207 | 3.0 | 6.0 | 0.00 | 0.00 | 0.00 | 57 | 1008.5 |
| 20260504045338 | 63 | 264 | 7.0 | 9.0 | 0.00 | 0.00 | 0.00 | 57 | 1008.3 |
| 20260504044835 | 63 | 214 | 6.0 | 7.0 | 0.00 | 0.00 | 0.00 | 57 | 1008.4 |
| 20260504044333 | 63 | 194 | 4.0 | 6.0 | 0.00 | 0.00 | 0.00 | 56 | 1008.5 |
| 20260504043830 | 63 | 211 | 4.0 | 4.0 | 0.00 | 0.00 | 0.00 | 57 | 1008.7 |
| 20260504043327 | 63 | 221 | 6.0 | 10.0 | 0.00 | 0.00 | 0.00 | 56 | 1008.5 |
| 20260504042824 | 62 | 227 | 5.0 | 8.0 | 0.00 | 0.00 | 0.00 | 57 | 1008.6 |
| 20260504042320 | 63 | 205 | 6.0 | 7.0 | 0.00 | 0.00 | 0.00 | 56 | 1008.6 |
| 20260504041817 | 63 | 182 | 6.0 | 9.0 | 0.00 | 0.00 | 0.00 | 56 | 1008.5 |
| 20260504041313 | 63 | 240 | 7.0 | 9.0 | 0.00 | 0.00 | 0.00 | 55 | 1008.7 |
| 20260504040809 | 63 | 169 | 4.0 | 6.0 | 0.00 | 0.00 | 0.00 | 56 | 1008.7 |
| 20260504040307 | 63 | 233 | 4.0 | 6.0 | 0.00 | 0.00 | 0.00 | 55 | 1008.7 |
| 20260504035803 | 63 | 210 | 3.0 | 3.0 | 0.00 | 0.00 | 0.00 | 55 | 1008.7 |
| 20260504035300 | 63 | 197 | 4.0 | 6.0 | 0.00 | 0.00 | 0.00 | 54 | 1008.7 |
| 20260504034757 | 63 | 181 | 7.0 | 9.0 | 0.00 | 0.00 | 0.00 | 54 | 1008.8 |
| 20260504034255 | 63 | 170 | 2.0 | 3.0 | 0.00 | 0.00 | 0.00 | 54 | 1008.9 |
| 20260504033752 | 63 | 218 | 4.0 | 6.0 | 0.00 | 0.00 | 0.00 | 54 | 1008.8 |
| 20260504033249 | 63 | 241 | 6.0 | 8.0 | 0.00 | 0.00 | 0.00 | 53 | 1008.9 |
| 20260504032746 | 63 | 215 | 9.0 | 11.0 | 0.00 | 0.00 | 0.00 | 54 | 1009.0 |
| 20260504032243 | 63 | 171 | 2.0 | 3.0 | 0.00 | 0.00 | 0.00 | 54 | 1008.9 |
| 20260504031740 | 63 | 232 | 6.0 | 9.0 | 0.00 | 0.00 | 0.00 | 54 | 1009.0 |
| 20260504031238 | 63 | 204 | 4.0 | 6.0 | 0.00 | 0.00 | 0.00 | 54 | 1009.0 |
| 20260504030733 | 63 | 200 | 5.0 | 7.0 | 0.00 | 0.00 | 0.00 | 54 | 1009.2 |
| 20260504030231 | 63 | 203 | 5.0 | 6.0 | 0.00 | 0.00 | 0.00 | 53 | 1009.2 |
| 20260504025727 | 63 | 186 | 5.0 | 6.0 | 0.00 | 0.00 | 0.00 | 53 | 1009.2 |
| 20260504025224 | 63 | 198 | 2.0 | 3.0 | 0.00 | 0.00 | 0.00 | 54 | 1009.1 |
| 20260504024721 | 63 | 176 | 4.0 | 4.0 | 0.00 | 0.00 | 0.00 | 54 | 1009.0 |
| 20260504024217 | 63 | 205 | 8.0 | 9.0 | 0.00 | 0.00 | 0.00 | 53 | 1009.0 |
| 20260504023714 | 63 | 197 | 4.0 | 6.0 | 0.00 | 0.00 | 0.00 | 53 | 1008.8 |
| 20260504023210 | 63 | 206 | 2.0 | 3.0 | 0.00 | 0.00 | 0.00 | 53 | 1009.1 |
| 20260504022706 | 63 | 201 | 4.0 | 4.0 | 0.00 | 0.00 | 0.00 | 54 | 1009.3 |
| 20260504022203 | 63 | 217 | 3.0 | 3.0 | 0.00 | 0.00 | 0.00 | 53 | 1009.0 |
| 20260504021701 | 63 | 172 | 6.0 | 7.0 | 0.00 | 0.00 | 0.00 | 52 | 1009.2 |
| 20260504021157 | 63 | 197 | 4.0 | 6.0 | 0.00 | 0.00 | 0.00 | 53 | 1008.9 |
| 20260504020654 | 63 | 203 | 2.0 | 2.0 | 0.00 | 0.00 | 0.00 | 52 | 1008.8 |
| 20260504020150 | 63 | 215 | 5.0 | 7.0 | 0.00 | 0.00 | 0.00 | 51 | 1009.0 |
| 20260504015647 | 64 | 203 | 2.0 | 2.0 | 0.00 | 0.00 | 0.00 | 52 | 1009.0 |
| 20260504015143 | 64 | 209 | 2.0 | 3.0 | 0.00 | 0.00 | 0.00 | 51 | 1008.8 |
| 20260504014639 | 64 | 175 | 3.0 | 4.0 | 0.00 | 0.00 | 0.00 | 50 | 1008.8 |
| 20260504014136 | 64 | 226 | 2.0 | 2.0 | 0.00 | 0.00 | 0.00 | 50 | 1008.8 |
| 20260504013634 | 65 | 193 | 2.0 | 3.0 | 0.00 | 0.00 | 0.00 | 50 | 1008.8 |
| 20260504013131 | 65 | 189 | 3.0 | 3.0 | 0.00 | 0.00 | 0.00 | 49 | 1009.0 |
| 20260504012628 | 65 | 214 | 3.0 | 4.0 | 0.00 | 0.00 | 0.00 | 49 | 1008.8 |
| 20260504012126 | 66 | 194 | 6.0 | 8.0 | 0.00 | 0.00 | 0.00 | 48 | 1008.6 |
| 20260504011622 | 66 | 208 | 2.0 | 2.0 | 0.00 | 0.00 | 0.00 | 48 | 1008.8 |
| 20260504011119 | 66 | 200 | 5.0 | 6.0 | 0.00 | 0.00 | 0.00 | 47 | 1008.8 |
| 20260504010614 | 66 | 212 | 4.0 | 6.0 | 0.00 | 0.00 | 0.00 | 47 | 1008.7 |
| 20260504010111 | 66 | 208 | 4.0 | 6.0 | 0.00 | 0.00 | 0.00 | 47 | 1008.7 |
| 20260504005608 | 67 | 253 | 4.0 | 6.0 | 0.00 | 0.00 | 0.00 | 48 | 1008.7 |
| 20260504005105 | 67 | 210 | 5.0 | 6.0 | 0.00 | 0.00 | 0.00 | 47 | 1008.7 |
| 20260504004603 | 67 | 174 | 6.0 | 7.0 | 0.00 | 0.00 | 0.00 | 47 | 1008.5 |
| 20260504004100 | 67 | 202 | 4.0 | 4.0 | 0.00 | 0.00 | 0.00 | 46 | 1008.5 |
| 20260504003556 | 68 | 198 | 4.0 | 4.0 | 0.00 | 0.00 | 0.00 | 45 | 1008.6 |
| 20260504003053 | 68 | 198 | 4.0 | 4.0 | 0.00 | 0.00 | 0.00 | 45 | 1008.7 |
| 20260504002549 | 68 | 187 | 3.0 | 4.0 | 0.00 | 0.00 | 0.00 | 44 | 1008.8 |
| 20260504002047 | 69 | 221 | 2.0 | 3.0 | 0.00 | 0.00 | 0.00 | 44 | 1008.8 |
| 20260504001544 | 69 | 220 | 2.0 | 2.0 | 0.00 | 0.00 | 0.00 | 43 | 1008.7 |
| 20260504001040 | 69 | 216 | 3.0 | 3.0 | 0.00 | 0.00 | 0.00 | 43 | 1008.8 |
| 20260504000538 | 69 | 266 | 3.0 | 4.0 | 0.00 | 0.00 | 0.00 | 43 | 1008.9 |
| 20260504000035 | 69 | 189 | 9.0 | 9.0 | 0.00 | 0.00 | 0.00 | 42 | 1009.0 |
| 20260503235533 | 70 | 202 | 7.0 | 9.0 | 0.00 | 0.00 | 0.00 | 42 | 1008.9 |
| 20260503235029 | 70 | 231 | 4.0 | 6.0 | 0.00 | 0.00 | 0.00 | 42 | 1009.1 |
| 20260503234527 | 70 | 314 | 4.0 | 4.0 | 0.00 | 0.00 | 0.00 | 43 | 1008.9 |
| 20260503234025 | 70 | 196 | 1.0 | 3.0 | 0.00 | 0.00 | 0.00 | 43 | 1009.1 |
| 20260503233521 | 70 | 236 | 5.0 | 7.0 | 0.00 | 0.00 | 0.00 | 42 | 1009.3 |
| 20260503233017 | 71 | 172 | 3.0 | 3.0 | 0.00 | 0.00 | 0.00 | 41 | 1009.4 |
| 20260503232515 | 71 | 209 | 3.0 | 3.0 | 0.00 | 0.00 | 0.00 | 41 | 1009.2 |
| 20260503232012 | 71 | 207 | 6.0 | 8.0 | 0.00 | 0.00 | 0.00 | 41 | 1009.0 |
| 20260503231510 | 71 | 204 | 9.0 | 14.0 | 0.00 | 0.00 | 0.00 | 41 | 1009.3 |
| 20260503231006 | 71 | 229 | 8.0 | 9.0 | 0.00 | 0.00 | 0.00 | 40 | 1009.3 |
| 20260503230503 | 71 | 219 | 6.0 | 9.0 | 0.00 | 0.00 | 0.00 | 40 | 1009.3 |
| 20260503230000 | 71 | 198 | 8.0 | 9.0 | 0.00 | 0.00 | 0.00 | 41 | 1009.4 |
| 20260503225457 | 71 | 215 | 5.0 | 7.0 | 0.00 | 0.00 | 0.00 | 41 | 1009.8 |
| 20260503224952 | 72 | 223 | 4.0 | 6.0 | 0.00 | 0.00 | 0.00 | 40 | 1009.6 |
| 20260503224450 | 72 | 229 | 1.0 | 2.0 | 0.00 | 0.00 | 0.00 | 41 | 1009.7 |
| 20260503223948 | 71 | 203 | 2.0 | 2.0 | 0.00 | 0.00 | 0.00 | 40 | 1009.8 |
| 20260503223445 | 71 | 186 | 6.0 | 7.0 | 0.00 | 0.00 | 0.00 | 40 | 1009.7 |
| 20260503222941 | 71 | 206 | 9.0 | 14.0 | 0.00 | 0.00 | 0.00 | 39 | 1009.9 |
| 20260503222439 | 72 | 234 | 5.0 | 8.0 | 0.00 | 0.00 | 0.00 | 39 | 1009.8 |
| 20260503221937 | 71 | 213 | 11.0 | 14.0 | 0.00 | 0.00 | 0.00 | 38 | 1009.9 |
| 20260503221435 | 72 | 200 | 4.0 | 6.0 | 0.00 | 0.00 | 0.00 | 39 | 1009.9 |
| 20260503220932 | 71 | 236 | 6.0 | 8.0 | 0.00 | 0.00 | 0.00 | 39 | 1010.1 |
| 20260503220428 | 72 | 193 | 4.0 | 6.0 | 0.00 | 0.00 | 0.00 | 40 | 1010.2 |
| 20260503215925 | 72 | 184 | 5.0 | 7.0 | 0.00 | 0.00 | 0.00 | 40 | 1010.0 |
| 20260503215422 | 72 | 228 | 6.0 | 9.0 | 0.00 | 0.00 | 0.00 | 38 | 1010.1 |
| 20260503214920 | 73 | 216 | 6.0 | 8.0 | 0.00 | 0.00 | 0.00 | 37 | 1010.2 |
| 20260503214417 | 72 | 252 | 3.0 | 6.0 | 0.00 | 0.00 | 0.00 | 38 | 1010.4 |
| 20260503213914 | 71 | 207 | 4.0 | 7.0 | 0.00 | 0.00 | 0.00 | 37 | 1010.7 |
| 20260503213412 | 72 | 187 | 10.0 | 15.0 | 0.00 | 0.00 | 0.00 | 39 | 1010.4 |
| 20260503212908 | 72 | 212 | 3.0 | 4.0 | 0.00 | 0.00 | 0.00 | 37 | 1010.7 |
| 20260503212406 | 72 | 278 | 3.0 | 3.0 | 0.00 | 0.00 | 0.00 | 37 | 1010.5 |
| 20260503211904 | 71 | 207 | 6.0 | 8.0 | 0.00 | 0.00 | 0.00 | 38 | 1010.6 |
| 20260503211400 | 71 | 214 | 7.0 | 9.0 | 0.00 | 0.00 | 0.00 | 40 | 1010.7 |
| 20260503210855 | 71 | 221 | 9.0 | 11.0 | 0.00 | 0.00 | 0.00 | 39 | 1010.9 |
| 20260503210353 | 71 | 220 | 2.0 | 3.0 | 0.00 | 0.00 | 0.00 | 38 | 1011.1 |
| 20260503205847 | 71 | 191 | 4.0 | 4.0 | 0.00 | 0.00 | 0.00 | 39 | 1011.0 |
| 20260503205345 | 71 | 221 | 6.0 | 7.0 | 0.00 | 0.00 | 0.00 | 38 | 1011.3 |
| 20260503204841 | 71 | 184 | 5.0 | 9.0 | 0.00 | 0.00 | 0.00 | 39 | 1011.4 |
| 20260503204338 | 72 | 218 | 7.0 | 10.0 | 0.00 | 0.00 | 0.00 | 40 | 1011.3 |
| 20260503203835 | 71 | 282 | 6.0 | 10.0 | 0.00 | 0.00 | 0.00 | 37 | 1011.7 |
| 20260503203333 | 71 | 205 | 3.0 | 6.0 | 0.00 | 0.00 | 0.00 | 40 | 1011.7 |
| 20260503202830 | 71 | 139 | 6.0 | 8.0 | 0.00 | 0.00 | 0.00 | 40 | 1011.8 |
| 20260503202328 | 70 | 253 | 3.0 | 4.0 | 0.00 | 0.00 | 0.00 | 41 | 1012.0 |
| 20260503201826 | 70 | 196 | 7.0 | 8.0 | 0.00 | 0.00 | 0.00 | 40 | 1012.1 |
| 20260503201322 | 71 | 187 | 9.0 | 11.0 | 0.00 | 0.00 | 0.00 | 39 | 1012.1 |
| 20260503200820 | 70 | 182 | 5.0 | 7.0 | 0.00 | 0.00 | 0.00 | 41 | 1012.3 |
| 20260503200316 | 70 | 208 | 6.0 | 11.0 | 0.00 | 0.00 | 0.00 | 40 | 1012.5 |
| 20260503195813 | 70 | 271 | 8.0 | 13.0 | 0.00 | 0.00 | 0.00 | 41 | 1012.5 |
| 20260503195310 | 70 | 259 | 3.0 | 4.0 | 0.00 | 0.00 | 0.00 | 40 | 1012.5 |
| 20260503194807 | 69 | 227 | 8.0 | 9.0 | 0.00 | 0.00 | 0.00 | 41 | 1012.8 |
| 20260503194303 | 70 | 155 | 3.0 | 4.0 | 0.00 | 0.00 | 0.00 | 42 | 1012.9 |
| 20260503193759 | 69 | 292 | 3.0 | 4.0 | 0.00 | 0.00 | 0.00 | 41 | 1013.2 |
| 20260503193255 | 70 | 240 | 3.0 | 4.0 | 0.00 | 0.00 | 0.00 | 39 | 1013.2 |
| 20260503192751 | 70 | 264 | 4.0 | 6.0 | 0.00 | 0.00 | 0.00 | 41 | 1013.2 |
| 20260503192246 | 69 | 207 | 2.0 | 3.0 | 0.00 | 0.00 | 0.00 | 43 | 1013.7 |
| 20260503191743 | 68 | 282 | 3.0 | 4.0 | 0.00 | 0.00 | 0.00 | 44 | 1013.7 |
| 20260503191240 | 68 | 264 | 7.0 | 14.0 | 0.00 | 0.00 | 0.00 | 41 | 1013.6 |
| 20260503190737 | 69 | 235 | 8.0 | 11.0 | 0.00 | 0.00 | 0.00 | 40 | 1013.7 |
| 20260503190234 | 68 | 260 | 6.0 | 8.0 | 0.00 | 0.00 | 0.00 | 42 | 1013.7 |
| 20260503185731 | 69 | 195 | 9.0 | 11.0 | 0.00 | 0.00 | 0.00 | 40 | 1013.4 |
| 20260503185227 | 69 | 247 | 7.0 | 9.0 | 0.00 | 0.00 | 0.00 | 42 | 1013.8 |
| 20260503184721 | 68 | 222 | 9.0 | 11.0 | 0.00 | 0.00 | 0.00 | 44 | 1013.9 |
| 20260503184218 | 68 | 188 | 8.0 | 10.0 | 0.00 | 0.00 | 0.00 | 43 | 1014.0 |
| 20260503183714 | 68 | 191 | 7.0 | 9.0 | 0.00 | 0.00 | 0.00 | 44 | 1014.2 |
| 20260503183212 | 68 | 207 | 4.0 | 6.0 | 0.00 | 0.00 | 0.00 | 42 | 1014.4 |
| 20260503182710 | 67 | 257 | 4.0 | 7.0 | 0.00 | 0.00 | 0.00 | 44 | 1014.4 |
| 20260503182208 | 66 | 211 | 6.0 | 9.0 | 0.00 | 0.00 | 0.00 | 43 | 1014.2 |
| 20260503181704 | 67 | 191 | 3.0 | 6.0 | 0.00 | 0.00 | 0.00 | 44 | 1014.7 |
| 20260503181201 | 67 | 274 | 4.0 | 4.0 | 0.00 | 0.00 | 0.00 | 46 | 1014.6 |
| 20260503180658 | 66 | 206 | 3.0 | 4.0 | 0.00 | 0.00 | 0.00 | 47 | 1014.5 |
| 20260503180157 | 66 | 151 | 9.0 | 11.0 | 0.00 | 0.00 | 0.00 | 49 | 1014.5 |
| 20260503175653 | 66 | 168 | 9.0 | 10.0 | 0.00 | 0.00 | 0.00 | 49 | 1014.6 |
| 20260503175150 | 67 | 277 | 4.0 | 6.0 | 0.00 | 0.00 | 0.00 | 46 | 1015.1 |
| 20260503174646 | 67 | 269 | 4.0 | 9.0 | 0.00 | 0.00 | 0.00 | 47 | 1014.9 |
| 20260503174144 | 66 | 271 | 4.0 | 7.0 | 0.00 | 0.00 | 0.00 | 48 | 1015.2 |
| 20260503173639 | 65 | 234 | 9.0 | 11.0 | 0.00 | 0.00 | 0.00 | 47 | 1015.1 |
| 20260503173136 | 66 | 184 | 6.0 | 9.0 | 0.00 | 0.00 | 0.00 | 47 | 1015.4 |
| 20260503172633 | 65 | 183 | 5.0 | 9.0 | 0.00 | 0.00 | 0.00 | 48 | 1015.1 |
| 20260503172130 | 66 | 187 | 6.0 | 9.0 | 0.00 | 0.00 | 0.00 | 47 | 1015.3 |
| 20260503171626 | 66 | 238 | 4.0 | 6.0 | 0.00 | 0.00 | 0.00 | 48 | 1015.4 |
| 20260503171124 | 65 | 220 | 6.0 | 8.0 | 0.00 | 0.00 | 0.00 | 46 | 1015.3 |
| 20260503170621 | 65 | 187 | 4.0 | 4.0 | 0.00 | 0.00 | 0.00 | 49 | 1015.5 |
| 20260503170117 | 65 | 199 | 9.0 | 11.0 | 0.00 | 0.00 | 0.00 | 47 | 1015.4 |